Newton, KS

8:39 PM CDT on March 30, 2017 (GMT -0500)
Newton City County

Weather History for KEWK - March, 2013

Change the Weather History Date:

Monday, March 11, 2013

  Actual Average Record
Temperature  
Mean Temperature 32 °F -  
Max Temperature 44 °F 49 °F 75 °F (2015)
Min Temperature 21 °F 28 °F 6 °F (1998)
Degree Days  
Heating Degree Days 32    
Moisture  
Dew Point 17 °F    
Average Humidity 55    
Maximum Humidity 80    
Minimum Humidity 31    
Precipitation  
Precipitation 0.00 in - - ()
Sea Level Pressure  
Sea Level Pressure 29.99 in    
Wind  
Wind Speed 14 mph (NW)    
Max Wind Speed 20 mph    
Max Gust Speed 25 mph    
Visibility 10 miles    
Events      
Averages and records for this station are not official NWS values.
T = Trace of Precipitation, MM = Missing Value Source: NWS Daily Summary

Daily Weather History Graph

Daily Weather History Graph

Search for Another Location

Airport or City:

Trip Planner

Search our weather history database for the weather conditions in past years. The results will help you decide how hot, cold, wet, or windy it might be!

Date:

Astronomy

Mar. 11, 2013 Rise Set
Actual Time 7:45 AM CDT 7:32 PM CDT
Civil Twilight 7:19 AM CDT 7:59 PM CDT
Nautical Twilight 6:49 AM CDT 8:29 PM CDT
Astronomical Twilight 6:18 AM CDT 9:00 PM CDT
Moon 7:20 AM CDT (3/11) 7:45 PM CDT (3/11)
Length of Visible Light 12h 39m
Length of Day
11h 46m
Waning Crescent, 0% of the Moon is Illuminated
Mar 11
Waning Crescent
Mar 11
New
Mar 19
First Quarter
Mar 27
Full
Apr 2
Last Quarter

Hourly Weather History & Observations

Time (CDT) Temp. Windchill Dew Point Humidity Pressure Visibility Wind Dir Wind Speed Gust Speed Precip Events Conditions
12:15 AM 26.6 °F 14.3 °F 17.6 °F 69% 30.02 in 10.0 mi NNW 16.1 mph 24.2 mph N/A   Overcast
12:35 AM 26.6 °F 13.8 °F 17.6 °F 69% 30.01 in 10.0 mi NNW 17.3 mph 25.3 mph N/A   Overcast
12:55 AM 26.6 °F 14.7 °F 17.6 °F 69% 30.00 in 10.0 mi NNW 15.0 mph 21.9 mph N/A   Mostly Cloudy
1:15 AM 26.6 °F 15.7 °F 17.6 °F 69% 30.00 in 10.0 mi NNW 12.7 mph 19.6 mph N/A   Mostly Cloudy
1:35 AM 26.6 °F 15.7 °F 17.6 °F 69% 29.99 in 10.0 mi NNW 12.7 mph - N/A   Mostly Cloudy
1:55 AM 26.6 °F 13.1 °F 17.6 °F 69% 29.99 in 10.0 mi NW 19.6 mph 23.0 mph N/A   Overcast
2:15 AM 26.6 °F 13.8 °F 17.6 °F 69% 29.98 in 10.0 mi NW 17.3 mph - N/A   Overcast
2:35 AM 26.6 °F 13.4 °F 17.6 °F 69% 29.99 in 10.0 mi NW 18.4 mph - N/A   Mostly Cloudy
2:55 AM 26.6 °F 13.1 °F 17.6 °F 69% 29.99 in 10.0 mi NW 19.6 mph - N/A   Partly Cloudy
3:15 AM 24.8 °F 12.4 °F 15.8 °F 69% 29.98 in 10.0 mi NW 15.0 mph - N/A   Clear
3:35 AM 24.8 °F 13.4 °F 15.8 °F 69% 29.97 in 10.0 mi NW 12.7 mph - N/A   Clear
3:55 AM 24.8 °F 11.9 °F 15.8 °F 69% 29.97 in 10.0 mi NW 16.1 mph - N/A   Clear
4:15 AM 24.8 °F 11.5 °F 15.8 °F 69% 29.97 in 10.0 mi NW 17.3 mph - N/A   Clear
4:35 AM 24.8 °F 11.9 °F 15.8 °F 69% 29.97 in 10.0 mi NW 16.1 mph - N/A   Clear
4:55 AM 24.8 °F 11.9 °F 15.8 °F 69% 29.97 in 10.0 mi NW 16.1 mph - N/A   Clear
5:15 AM 23.0 °F 9.6 °F 15.8 °F 74% 29.97 in 10.0 mi NW 16.1 mph 21.9 mph N/A   Clear
5:35 AM 23.0 °F 9.6 °F 15.8 °F 74% 29.96 in 10.0 mi NW 16.1 mph - N/A   Clear
5:55 AM 21.2 °F 7.8 °F 15.8 °F 80% 29.96 in 10.0 mi NW 15.0 mph - N/A   Clear
6:15 AM 21.2 °F 7.3 °F 14.0 °F 74% 29.96 in 10.0 mi NW 16.1 mph 21.9 mph N/A   Clear
6:35 AM 21.2 °F 6.8 °F 14.0 °F 74% 29.97 in 10.0 mi NW 17.3 mph - N/A   Clear
6:55 AM 21.2 °F 6.4 °F 14.0 °F 74% 29.97 in 10.0 mi NW 18.4 mph - N/A   Clear
7:15 AM 21.2 °F 7.8 °F 14.0 °F 74% 29.97 in 10.0 mi NW 15.0 mph - N/A   Clear
7:35 AM 21.2 °F 7.3 °F 12.2 °F 68% 29.98 in 10.0 mi NW 16.1 mph - N/A   Clear
7:55 AM 21.2 °F 7.3 °F 12.2 °F 68% 29.99 in 10.0 mi NW 16.1 mph - N/A   Clear
8:15 AM 21.2 °F 7.8 °F 14.0 °F 74% 29.99 in 10.0 mi NW 15.0 mph - N/A   Clear
8:35 AM 21.2 °F 6.8 °F 14.0 °F 74% 30.00 in 10.0 mi NW 17.3 mph - N/A   Clear
8:55 AM 21.2 °F 6.8 °F 14.0 °F 74% 30.00 in 10.0 mi NNW 17.3 mph - N/A   Clear
9:15 AM 23.0 °F 9.2 °F 14.0 °F 68% 30.01 in 10.0 mi NW 17.3 mph - N/A   Clear
9:35 AM 24.8 °F 10.7 °F 14.0 °F 64% 30.02 in 10.0 mi NW 19.6 mph - N/A   Clear
9:55 AM 24.8 °F 11.5 °F 12.2 °F 59% 30.02 in 10.0 mi NNW 17.3 mph 24.2 mph N/A   Clear
10:15 AM 26.6 °F 13.1 °F 12.2 °F 55% 30.01 in 10.0 mi NW 19.6 mph - N/A   Clear
10:35 AM 26.6 °F 13.4 °F 12.2 °F 55% 30.01 in 10.0 mi NW 18.4 mph 21.9 mph N/A   Clear
10:55 AM 28.4 °F 16.6 °F 12.2 °F 51% 30.01 in 10.0 mi NW 16.1 mph 21.9 mph N/A   Clear
11:15 AM 28.4 °F 17.0 °F 14.0 °F 55% 30.01 in 10.0 mi NNW 15.0 mph 21.9 mph N/A   Clear
11:35 AM 30.2 °F 19.3 °F 14.0 °F 51% 30.01 in 10.0 mi NNW 15.0 mph 19.6 mph N/A   Clear
11:55 AM 32.0 °F 21.2 °F 15.8 °F 51% 30.01 in 10.0 mi NW 16.1 mph 21.9 mph N/A   Clear
12:15 PM 32.0 °F 22.1 °F 15.8 °F 51% 30.00 in 10.0 mi NNW 13.8 mph 21.9 mph N/A   Clear
12:35 PM 32.0 °F 22.5 °F 14.0 °F 48% 30.00 in 10.0 mi NW 12.7 mph 20.7 mph N/A   Clear
12:55 PM 33.8 °F 24.8 °F 15.8 °F 48% 30.01 in 10.0 mi NW 12.7 mph 19.6 mph N/A   Clear
1:15 PM 35.6 °F 27.1 °F 17.6 °F 48% 30.00 in 10.0 mi NNW 12.7 mph - N/A   Clear
1:35 PM 37.4 °F 28.9 °F 15.8 °F 41% 29.99 in 10.0 mi NNW 13.8 mph - N/A   Clear
1:55 PM 37.4 °F 27.5 °F 15.8 °F 41% 30.00 in 10.0 mi NW 18.4 mph - N/A   Clear
2:15 PM 39.2 °F 31.6 °F 15.8 °F 39% 30.00 in 10.0 mi NW 12.7 mph 17.3 mph N/A   Clear
2:35 PM 39.2 °F 31.6 °F 15.8 °F 39% 29.98 in 10.0 mi NW 12.7 mph 18.4 mph N/A   Clear
2:55 PM 41.0 °F 34.3 °F 17.6 °F 39% 29.97 in 10.0 mi NNW 11.5 mph - N/A   Clear
3:15 PM 41.0 °F 33.5 °F 15.8 °F 36% 29.97 in 10.0 mi NNW 13.8 mph - N/A   Clear
3:35 PM 42.8 °F 35.8 °F 17.6 °F 36% 29.96 in 10.0 mi NW 13.8 mph - N/A   Clear
3:55 PM 42.8 °F 35.8 °F 15.8 °F 34% 29.96 in 10.0 mi NW 13.8 mph - N/A   Clear
4:15 PM 44.6 °F 38.4 °F 15.8 °F 31% 29.96 in 10.0 mi WNW 12.7 mph 17.3 mph N/A   Clear
4:35 PM 44.6 °F 38.4 °F 17.6 °F 34% 29.96 in 10.0 mi NW 12.7 mph - N/A   Clear
4:55 PM 44.6 °F 38.8 °F 21.2 °F 39% 29.96 in 10.0 mi WNW 11.5 mph - N/A   Clear
5:15 PM 44.6 °F 39.2 °F 19.4 °F 37% 29.96 in 10.0 mi WNW 10.4 mph - N/A   Clear
5:35 PM 44.6 °F 39.7 °F 17.6 °F 34% 29.95 in 10.0 mi WNW 9.2 mph - N/A   Clear
5:55 PM 44.6 °F 39.7 °F 17.6 °F 34% 29.96 in 10.0 mi NW 9.2 mph - N/A   Clear
6:15 PM 44.6 °F 40.7 °F 19.4 °F 37% 29.95 in 10.0 mi WNW 6.9 mph - N/A   Clear
6:35 PM 44.6 °F 39.7 °F 19.4 °F 37% 29.97 in 10.0 mi NW 9.2 mph - N/A   Clear
6:55 PM 44.6 °F 40.7 °F 19.4 °F 37% 29.97 in 10.0 mi NW 6.9 mph - N/A   Clear
7:15 PM 42.8 °F 40.1 °F 19.4 °F 39% 29.97 in 10.0 mi WNW 4.6 mph - N/A   Clear
7:35 PM 41.0 °F 39.0 °F 21.2 °F 45% 29.98 in 10.0 mi WNW 3.5 mph - N/A   Clear
7:55 PM 39.2 °F - 19.4 °F 45% 29.98 in 10.0 mi Calm Calm - N/A   Clear
8:15 PM 41.0 °F - 19.4 °F 42% 29.99 in 10.0 mi Calm Calm - N/A   Clear
8:35 PM 39.2 °F - 19.4 °F 45% 29.99 in 10.0 mi Calm Calm - N/A   Partly Cloudy
8:55 PM 37.4 °F - 21.2 °F 52% 30.00 in 10.0 mi Calm Calm - N/A   Clear
9:15 PM 35.6 °F 30.7 °F 21.2 °F 56% 29.99 in 10.0 mi South 5.8 mph - N/A   Clear
9:35 PM 35.6 °F 29.9 °F 21.2 °F 56% 29.99 in 10.0 mi South 6.9 mph - N/A   Clear
9:55 PM 35.6 °F 29.2 °F 19.4 °F 52% 29.99 in 10.0 mi South 8.1 mph - N/A   Clear
10:15 PM 35.6 °F 29.2 °F 21.2 °F 56% 30.00 in 10.0 mi SSW 8.1 mph - N/A   Partly Cloudy
10:35 PM 35.6 °F 30.7 °F 21.2 °F 56% 30.01 in 10.0 mi SSW 5.8 mph - N/A   Mostly Cloudy
10:55 PM 37.4 °F 32.1 °F 21.2 °F 52% 30.02 in 10.0 mi SW 6.9 mph - N/A   Overcast
11:15 PM 39.2 °F 35.0 °F 21.2 °F 49% 30.02 in 10.0 mi SSW 5.8 mph - N/A   Mostly Cloudy
11:35 PM 39.2 °F - 21.2 °F 49% 30.01 in 10.0 mi Calm Calm - N/A   Partly Cloudy
11:55 PM 37.4 °F - 21.2 °F 52% 30.02 in 10.0 mi Calm Calm - N/A   Partly Cloudy